| time (UTC) | temp F | wind direction | speed MPH | gust MPH | rain 1hr in | rain 24hr in | rain mn in | humidity % | barometer mb |
| 20260831151201 | 87 | 308 | 2.0 | 3.0 | 0.00 | 0.00 | 0.00 | 62 | 1018.0 |
| 20260831150701 | 86 | 191 | 3.0 | 4.0 | 0.00 | 0.00 | 0.00 | 61 | 1017.9 |
| 20260831150201 | 86 | 273 | 3.0 | 5.0 | 0.00 | 0.00 | 0.00 | 67 | 1017.9 |
| 20260831145701 | 85 | 233 | 4.0 | 6.0 | 0.00 | 0.00 | 0.00 | 68 | 1017.9 |
| 20260831145203 | 85 | 233 | 3.0 | 4.0 | 0.00 | 0.00 | 0.00 | 69 | 1017.9 |
| 20260831144703 | 85 | 280 | 0.0 | 2.0 | 0.00 | 0.00 | 0.00 | 70 | 1017.9 |
| 20260831144201 | 85 | 305 | 0.0 | 1.0 | 0.00 | 0.00 | 0.00 | 71 | 1017.9 |
| 20260831143701 | 85 | 122 | 0.0 | 2.0 | 0.00 | 0.00 | 0.00 | 72 | 1017.8 |
| 20260831143201 | 85 | 123 | 1.0 | 2.0 | 0.00 | 0.00 | 0.00 | 71 | 1017.8 |
| 20260831142701 | 84 | 360 | 0.0 | 0.0 | 0.00 | 0.00 | 0.00 | 73 | 1017.8 |
| 20260831142201 | 83 | 173 | 3.0 | 3.0 | 0.00 | 0.00 | 0.00 | 74 | 1017.7 |
| 20260831141701 | 83 | 166 | 0.0 | 2.0 | 0.00 | 0.00 | 0.00 | 75 | 1017.8 |
| 20260831141201 | 83 | 175 | 2.0 | 4.0 | 0.00 | 0.00 | 0.00 | 76 | 1017.8 |
| 20260831140700 | 83 | 169 | 4.0 | 5.0 | 0.00 | 0.00 | 0.00 | 75 | 1017.7 |
| 20260831140201 | 83 | 162 | 2.0 | 3.0 | 0.00 | 0.00 | 0.00 | 75 | 1017.7 |
| 20260831135701 | 83 | 182 | 2.0 | 3.0 | 0.00 | 0.00 | 0.00 | 76 | 1017.7 |
| 20260831135200 | 82 | 180 | 1.0 | 3.0 | 0.00 | 0.00 | 0.00 | 74 | 1017.7 |
| 20260831134706 | 81 | 173 | 1.0 | 2.0 | 0.00 | 0.00 | 0.00 | 76 | 1017.6 |
| 20260831134203 | 81 | 194 | 0.0 | 2.0 | 0.00 | 0.00 | 0.00 | 77 | 1017.5 |
| 20260831133701 | 80 | 163 | 0.0 | 0.0 | 0.00 | 0.00 | 0.00 | 78 | 1017.6 |
| 20260831133201 | 80 | 175 | 2.0 | 3.0 | 0.00 | 0.00 | 0.00 | 77 | 1017.5 |
| 20260831132700 | 80 | 178 | 1.0 | 2.0 | 0.00 | 0.00 | 0.00 | 77 | 1017.3 |
| 20260831132200 | 79 | 190 | 0.0 | 2.0 | 0.00 | 0.00 | 0.00 | 77 | 1017.3 |
| 20260831131701 | 78 | 143 | 1.0 | 2.0 | 0.00 | 0.00 | 0.00 | 79 | 1017.3 |
| 20260831131201 | 78 | 186 | 0.0 | 2.0 | 0.00 | 0.00 | 0.00 | 80 | 1017.3 |
| 20260831130700 | 77 | 83 | 0.0 | 2.0 | 0.00 | 0.00 | 0.00 | 81 | 1017.2 |
| 20260831130201 | 76 | 83 | 0.0 | 1.0 | 0.00 | 0.00 | 0.00 | 83 | 1017.1 |
| 20260831125700 | 76 | 90 | 0.0 | 2.0 | 0.00 | 0.00 | 0.00 | 85 | 1017.1 |
| 20260831125201 | 75 | 117 | 0.0 | 2.0 | 0.00 | 0.00 | 0.00 | 87 | 1017.0 |
| 20260831124707 | 74 | 100 | 1.0 | 2.0 | 0.00 | 0.00 | 0.00 | 88 | 1016.9 |
| 20260831124201 | 73 | 360 | 0.0 | 0.0 | 0.00 | 0.00 | 0.00 | 89 | 1016.8 |
| 20260831123701 | 73 | 91 | 0.0 | 0.0 | 0.00 | 0.00 | 0.00 | 90 | 1016.7 |
| 20260831123200 | 73 | 360 | 0.0 | 0.0 | 0.00 | 0.00 | 0.00 | 91 | 1016.5 |
| 20260831122700 | 72 | 360 | 0.0 | 0.0 | 0.00 | 0.00 | 0.00 | 91 | 1016.5 |
| 20260831122200 | 71 | 360 | 0.0 | 0.0 | 0.00 | 0.00 | 0.00 | 91 | 1016.5 |
| 20260831121701 | 71 | 360 | 0.0 | 0.0 | 0.00 | 0.00 | 0.00 | 91 | 1016.4 |
| 20260831121201 | 71 | 360 | 0.0 | 0.0 | 0.00 | 0.00 | 0.00 | 91 | 1016.4 |
| 20260831120701 | 71 | 360 | 0.0 | 0.0 | 0.00 | 0.00 | 0.00 | 91 | 1016.3 |
| 20260831120200 | 71 | 360 | 0.0 | 0.0 | 0.00 | 0.00 | 0.00 | 90 | 1016.3 |
| 20260831115700 | 71 | 360 | 0.0 | 0.0 | 0.00 | 0.00 | 0.00 | 90 | 1016.2 |
| 20260831115200 | 71 | 360 | 0.0 | 0.0 | 0.00 | 0.00 | 0.00 | 90 | 1016.2 |
| 20260831114700 | 71 | 134 | 0.0 | 0.0 | 0.00 | 0.00 | 0.00 | 90 | 1016.1 |
| 20260831114201 | 71 | 360 | 0.0 | 0.0 | 0.00 | 0.00 | 0.00 | 90 | 1016.0 |
| 20260831113701 | 71 | 360 | 0.0 | 0.0 | 0.00 | 0.00 | 0.00 | 90 | 1016.0 |
| 20260831113201 | 71 | 360 | 0.0 | 0.0 | 0.00 | 0.00 | 0.00 | 90 | 1016.0 |
| 20260831112701 | 71 | 360 | 0.0 | 0.0 | 0.00 | 0.00 | 0.00 | 90 | 1015.9 |
| 20260831112200 | 71 | 360 | 0.0 | 0.0 | 0.00 | 0.00 | 0.00 | 89 | 1015.8 |
| 20260831111702 | 71 | 360 | 0.0 | 0.0 | 0.00 | 0.00 | 0.00 | 89 | 1015.7 |
| 20260831111201 | 71 | 360 | 0.0 | 0.0 | 0.00 | 0.00 | 0.00 | 89 | 1015.8 |
| 20260831110700 | 71 | 360 | 0.0 | 0.0 | 0.00 | 0.00 | 0.00 | 89 | 1015.8 |
| 20260831110202 | 71 | 360 | 0.0 | 0.0 | 0.00 | 0.00 | 0.00 | 89 | 1015.8 |
| 20260831105701 | 71 | 360 | 0.0 | 0.0 | 0.00 | 0.00 | 0.00 | 89 | 1015.7 |
| 20260831105201 | 72 | 360 | 0.0 | 0.0 | 0.00 | 0.00 | 0.00 | 89 | 1015.7 |
| 20260831104701 | 72 | 360 | 0.0 | 0.0 | 0.00 | 0.00 | 0.00 | 88 | 1015.7 |
| 20260831104200 | 72 | 360 | 0.0 | 0.0 | 0.00 | 0.00 | 0.00 | 88 | 1015.8 |
| 20260831103700 | 72 | 360 | 0.0 | 0.0 | 0.00 | 0.00 | 0.00 | 88 | 1015.8 |
| 20260831103200 | 72 | 360 | 0.0 | 0.0 | 0.00 | 0.00 | 0.00 | 88 | 1015.8 |
| 20260831102703 | 72 | 360 | 0.0 | 0.0 | 0.00 | 0.00 | 0.00 | 87 | 1015.7 |
| 20260831102201 | 72 | 162 | 0.0 | 0.0 | 0.00 | 0.00 | 0.00 | 87 | 1015.8 |
| 20260831101702 | 73 | 360 | 0.0 | 0.0 | 0.00 | 0.00 | 0.00 | 87 | 1015.7 |
| 20260831101201 | 73 | 360 | 0.0 | 0.0 | 0.00 | 0.00 | 0.00 | 87 | 1015.7 |
| 20260831100700 | 73 | 360 | 0.0 | 0.0 | 0.00 | 0.00 | 0.00 | 86 | 1015.7 |
| 20260831100201 | 73 | 360 | 0.0 | 0.0 | 0.00 | 0.00 | 0.00 | 86 | 1015.7 |
| 20260831095701 | 73 | 360 | 0.0 | 0.0 | 0.00 | 0.00 | 0.00 | 86 | 1015.7 |
| 20260831095200 | 73 | 360 | 0.0 | 0.0 | 0.00 | 0.00 | 0.00 | 86 | 1015.7 |
| 20260831094700 | 73 | 360 | 0.0 | 0.0 | 0.00 | 0.00 | 0.00 | 85 | 1015.7 |
| 20260831094201 | 74 | 360 | 0.0 | 0.0 | 0.00 | 0.00 | 0.00 | 85 | 1015.6 |
| 20260831093700 | 74 | 360 | 0.0 | 0.0 | 0.00 | 0.00 | 0.00 | 84 | 1015.6 |
| 20260831093200 | 74 | 91 | 1.0 | 2.0 | 0.00 | 0.00 | 0.00 | 85 | 1015.6 |
| 20260831092700 | 74 | 360 | 0.0 | 0.0 | 0.00 | 0.00 | 0.00 | 84 | 1015.6 |
| 20260831092200 | 74 | 161 | 0.0 | 0.0 | 0.00 | 0.00 | 0.00 | 84 | 1015.6 |
| 20260831091700 | 74 | 117 | 0.0 | 2.0 | 0.00 | 0.00 | 0.00 | 84 | 1015.5 |
| 20260831091200 | 74 | 120 | 0.0 | 1.0 | 0.00 | 0.00 | 0.00 | 83 | 1015.4 |
| 20260831090701 | 74 | 119 | 1.0 | 2.0 | 0.00 | 0.00 | 0.00 | 83 | 1015.5 |
| 20260831090201 | 75 | 110 | 0.0 | 0.0 | 0.00 | 0.00 | 0.00 | 83 | 1015.5 |
| 20260831085701 | 75 | 360 | 0.0 | 0.0 | 0.00 | 0.00 | 0.00 | 82 | 1015.4 |
| 20260831085201 | 75 | 360 | 0.0 | 0.0 | 0.00 | 0.00 | 0.00 | 81 | 1015.5 |
| 20260831084701 | 75 | 360 | 0.0 | 0.0 | 0.00 | 0.00 | 0.00 | 81 | 1015.6 |
| 20260831084200 | 76 | 360 | 0.0 | 0.0 | 0.00 | 0.00 | 0.00 | 81 | 1015.6 |
| 20260831083701 | 76 | 360 | 0.0 | 0.0 | 0.00 | 0.00 | 0.00 | 79 | 1015.6 |
| 20260831083304 | 76 | 150 | 0.0 | 1.0 | 0.00 | 0.00 | 0.00 | 79 | 1015.6 |
| 20260831082701 | 76 | 360 | 0.0 | 0.0 | 0.00 | 0.00 | 0.00 | 78 | 1015.6 |
| 20260831082200 | 76 | 360 | 0.0 | 0.0 | 0.00 | 0.00 | 0.00 | 78 | 1015.6 |
| 20260831081701 | 76 | 84 | 0.0 | 1.0 | 0.00 | 0.00 | 0.00 | 79 | 1015.6 |
| 20260831081200 | 76 | 203 | 0.0 | 1.0 | 0.00 | 0.00 | 0.00 | 79 | 1015.6 |
| 20260831080705 | 76 | 360 | 0.0 | 0.0 | 0.00 | 0.00 | 0.00 | 79 | 1015.6 |
| 20260831080200 | 77 | 242 | 0.0 | 0.0 | 0.00 | 0.00 | 0.00 | 78 | 1015.7 |
| 20260831075700 | 77 | 360 | 0.0 | 0.0 | 0.00 | 0.00 | 0.00 | 78 | 1015.7 |
| 20260831075200 | 78 | 360 | 0.0 | 0.0 | 0.00 | 0.00 | 0.00 | 76 | 1015.7 |
| 20260831074700 | 78 | 360 | 0.0 | 0.0 | 0.00 | 0.00 | 0.00 | 75 | 1015.7 |
| 20260831074200 | 78 | 360 | 0.0 | 0.0 | 0.00 | 0.00 | 0.00 | 75 | 1015.7 |
| 20260831073701 | 78 | 360 | 0.0 | 0.0 | 0.00 | 0.00 | 0.00 | 74 | 1015.7 |
| 20260831073200 | 79 | 141 | 0.0 | 0.0 | 0.00 | 0.00 | 0.00 | 73 | 1015.7 |
| 20260831072701 | 78 | 100 | 1.0 | 1.0 | 0.00 | 0.00 | 0.00 | 73 | 1015.7 |
| 20260831072202 | 78 | 360 | 0.0 | 0.0 | 0.00 | 0.00 | 0.00 | 73 | 1015.7 |
| 20260831071700 | 78 | 360 | 0.0 | 0.0 | 0.00 | 0.00 | 0.00 | 73 | 1015.8 |
| 20260831071200 | 78 | 119 | 0.0 | 1.0 | 0.00 | 0.00 | 0.00 | 73 | 1015.8 |
| 20260831070700 | 78 | 360 | 0.0 | 0.0 | 0.00 | 0.00 | 0.00 | 74 | 1015.8 |
| 20260831070201 | 78 | 360 | 0.0 | 0.0 | 0.00 | 0.00 | 0.00 | 74 | 1015.8 |
| 20260831065701 | 78 | 360 | 0.0 | 0.0 | 0.00 | 0.00 | 0.00 | 74 | 1015.8 |
| 20260831065201 | 78 | 360 | 0.0 | 0.0 | 0.00 | 0.00 | 0.00 | 75 | 1015.8 |
| 20260831064701 | 77 | 360 | 0.0 | 0.0 | 0.00 | 0.00 | 0.00 | 76 | 1015.8 |
| 20260831064201 | 78 | 360 | 0.0 | 0.0 | 0.00 | 0.00 | 0.00 | 77 | 1015.8 |
| 20260831063700 | 78 | 360 | 0.0 | 0.0 | 0.00 | 0.00 | 0.00 | 76 | 1015.8 |
| 20260831063201 | 78 | 360 | 0.0 | 0.0 | 0.00 | 0.00 | 0.00 | 76 | 1015.8 |
| 20260831062700 | 79 | 360 | 0.0 | 0.0 | 0.00 | 0.00 | 0.00 | 76 | 1015.9 |
| 20260831062200 | 79 | 360 | 0.0 | 0.0 | 0.00 | 0.00 | 0.00 | 75 | 1016.0 |
| 20260831061701 | 80 | 360 | 0.0 | 0.0 | 0.00 | 0.00 | 0.00 | 74 | 1016.0 |
| 20260831061201 | 80 | 360 | 0.0 | 0.0 | 0.00 | 0.00 | 0.00 | 73 | 1015.9 |
| 20260831060700 | 81 | 360 | 0.0 | 0.0 | 0.00 | 0.00 | 0.00 | 71 | 1015.9 |
| 20260831060201 | 81 | 360 | 0.0 | 0.0 | 0.00 | 0.00 | 0.00 | 70 | 1015.9 |
| 20260831055701 | 81 | 360 | 0.0 | 0.0 | 0.00 | 0.00 | 0.00 | 70 | 1015.8 |
| 20260831055201 | 81 | 105 | 0.0 | 0.0 | 0.00 | 0.00 | 0.00 | 70 | 1015.9 |
| 20260831054701 | 80 | 164 | 0.0 | 0.0 | 0.00 | 0.00 | 0.00 | 70 | 1016.0 |
| 20260831054200 | 80 | 360 | 0.0 | 0.0 | 0.00 | 0.00 | 0.00 | 71 | 1016.0 |
| 20260831053700 | 80 | 211 | 0.0 | 1.0 | 0.00 | 0.00 | 0.00 | 73 | 1016.1 |
| 20260831053201 | 79 | 360 | 0.0 | 0.0 | 0.00 | 0.00 | 0.00 | 74 | 1016.0 |
| 20260831052701 | 79 | 146 | 2.0 | 3.0 | 0.00 | 0.00 | 0.00 | 73 | 1016.0 |
| 20260831052200 | 78 | 92 | 2.0 | 2.0 | 0.00 | 0.00 | 0.00 | 76 | 1015.9 |
| 20260831051700 | 77 | 360 | 0.0 | 0.0 | 0.00 | 0.00 | 0.00 | 78 | 1015.8 |
| 20260831051201 | 78 | 240 | 3.0 | 4.0 | 0.00 | 0.00 | 0.00 | 78 | 1015.8 |
| 20260831050700 | 78 | 360 | 0.0 | 0.0 | 0.00 | 0.00 | 0.00 | 75 | 1015.7 |
| 20260831050202 | 79 | 360 | 0.0 | 0.0 | 0.00 | 0.00 | 0.00 | 75 | 1015.6 |
| 20260831045700 | 79 | 360 | 0.0 | 0.0 | 0.00 | 0.00 | 0.00 | 75 | 1015.6 |
| 20260831045200 | 79 | 360 | 0.0 | 0.0 | 0.00 | 0.00 | 0.00 | 74 | 1015.6 |
| 20260831044700 | 80 | 360 | 0.0 | 0.0 | 0.00 | 0.00 | 0.00 | 73 | 1015.6 |
| 20260831044200 | 80 | 360 | 0.0 | 0.0 | 0.00 | 0.00 | 0.00 | 73 | 1015.6 |
| 20260831043700 | 80 | 360 | 0.0 | 0.0 | 0.00 | 0.00 | 0.00 | 73 | 1015.5 |
| 20260831043200 | 80 | 360 | 0.0 | 0.0 | 0.00 | 0.00 | 0.00 | 73 | 1015.5 |
| 20260831042701 | 81 | 360 | 0.0 | 0.0 | 0.00 | 0.00 | 0.00 | 72 | 1015.5 |
| 20260831042206 | 81 | 360 | 0.0 | 0.0 | 0.00 | 0.00 | 0.00 | 70 | 1015.5 |
| 20260831041701 | 82 | 360 | 0.0 | 0.0 | 0.00 | 0.00 | 0.00 | 69 | 1015.4 |
| 20260831041200 | 82 | 360 | 0.0 | 0.0 | 0.00 | 0.00 | 0.00 | 69 | 1015.4 |
| 20260831040701 | 82 | 360 | 0.0 | 0.0 | 0.00 | 0.00 | 0.00 | 69 | 1015.3 |
| 20260831040200 | 83 | 360 | 0.0 | 0.0 | 0.00 | 0.00 | 0.00 | 67 | 1015.3 |
| 20260831035700 | 83 | 360 | 0.0 | 0.0 | 0.00 | 0.00 | 0.00 | 66 | 1015.3 |
| 20260831035200 | 84 | 360 | 0.0 | 0.0 | 0.00 | 0.00 | 0.00 | 64 | 1015.3 |
| 20260831034701 | 85 | 360 | 0.0 | 0.0 | 0.00 | 0.00 | 0.00 | 63 | 1015.3 |
| 20260831034201 | 85 | 360 | 0.0 | 0.0 | 0.00 | 0.00 | 0.00 | 62 | 1015.3 |
| 20260831033701 | 85 | 124 | 0.0 | 2.0 | 0.00 | 0.00 | 0.00 | 61 | 1015.3 |
| 20260831033201 | 85 | 360 | 0.0 | 0.0 | 0.00 | 0.00 | 0.00 | 61 | 1015.2 |
| 20260831032701 | 86 | 111 | 0.0 | 0.0 | 0.00 | 0.00 | 0.00 | 61 | 1015.1 |
| 20260831032201 | 86 | 110 | 2.0 | 3.0 | 0.00 | 0.00 | 0.00 | 60 | 1015.1 |
| 20260831031701 | 86 | 360 | 0.0 | 0.0 | 0.00 | 0.00 | 0.00 | 60 | 1015.1 |
| 20260831031201 | 86 | 114 | 1.0 | 3.0 | 0.00 | 0.00 | 0.00 | 60 | 1015.1 |
| 20260831030700 | 86 | 106 | 1.0 | 3.0 | 0.00 | 0.00 | 0.00 | 59 | 1015.1 |
| 20260831030201 | 86 | 114 | 2.0 | 4.0 | 0.00 | 0.00 | 0.00 | 59 | 1015.0 |
| 20260831025700 | 86 | 111 | 1.0 | 3.0 | 0.00 | 0.00 | 0.00 | 59 | 1015.0 |
| 20260831025200 | 86 | 118 | 1.0 | 2.0 | 0.00 | 0.00 | 0.00 | 59 | 1014.9 |
| 20260831024700 | 87 | 109 | 1.0 | 2.0 | 0.00 | 0.00 | 0.00 | 59 | 1014.8 |
| 20260831024200 | 87 | 112 | 0.0 | 1.0 | 0.00 | 0.00 | 0.00 | 59 | 1014.7 |
| 20260831023700 | 87 | 119 | 1.0 | 2.0 | 0.00 | 0.00 | 0.00 | 59 | 1014.6 |
| 20260831023200 | 87 | 122 | 1.0 | 2.0 | 0.00 | 0.00 | 0.00 | 59 | 1014.5 |
| 20260831022701 | 87 | 106 | 2.0 | 4.0 | 0.00 | 0.00 | 0.00 | 59 | 1014.5 |
| 20260831022200 | 87 | 101 | 2.0 | 4.0 | 0.00 | 0.00 | 0.00 | 59 | 1014.4 |
| 20260831021701 | 87 | 118 | 0.0 | 2.0 | 0.00 | 0.00 | 0.00 | 58 | 1014.3 |
| 20260831021200 | 87 | 117 | 0.0 | 2.0 | 0.00 | 0.00 | 0.00 | 58 | 1014.2 |
| 20260831020701 | 87 | 360 | 0.0 | 0.0 | 0.00 | 0.00 | 0.00 | 58 | 1014.1 |
| 20260831020200 | 87 | 106 | 1.0 | 3.0 | 0.00 | 0.00 | 0.00 | 58 | 1014.0 |
| 20260831015701 | 87 | 100 | 0.0 | 1.0 | 0.00 | 0.00 | 0.00 | 58 | 1014.0 |
| 20260831015206 | 87 | 116 | 1.0 | 2.0 | 0.00 | 0.00 | 0.00 | 57 | 1013.9 |
| 20260831014700 | 87 | 119 | 0.0 | 2.0 | 0.00 | 0.00 | 0.00 | 56 | 1013.8 |
| 20260831014200 | 87 | 360 | 0.0 | 0.0 | 0.00 | 0.00 | 0.00 | 55 | 1013.8 |
| 20260831013701 | 87 | 360 | 0.0 | 0.0 | 0.00 | 0.00 | 0.00 | 55 | 1013.7 |
| 20260831013201 | 87 | 89 | 2.0 | 4.0 | 0.00 | 0.00 | 0.00 | 54 | 1013.7 |
| 20260831012701 | 87 | 103 | 0.0 | 2.0 | 0.00 | 0.00 | 0.00 | 54 | 1013.6 |
| 20260831012200 | 87 | 120 | 0.0 | 2.0 | 0.00 | 0.00 | 0.00 | 54 | 1013.6 |
| 20260831011701 | 88 | 134 | 0.0 | 2.0 | 0.00 | 0.00 | 0.00 | 53 | 1013.5 |
| 20260831011201 | 88 | 84 | 1.0 | 3.0 | 0.00 | 0.00 | 0.00 | 51 | 1013.5 |
| 20260831010700 | 89 | 91 | 0.0 | 1.0 | 0.00 | 0.00 | 0.00 | 52 | 1013.5 |
| 20260831010200 | 90 | 127 | 0.0 | 1.0 | 0.00 | 0.00 | 0.00 | 51 | 1013.4 |
| 20260831005702 | 90 | 360 | 0.0 | 0.0 | 0.00 | 0.00 | 0.00 | 51 | 1013.3 |
| 20260831005200 | 91 | 107 | 0.0 | 2.0 | 0.00 | 0.00 | 0.00 | 47 | 1013.3 |
| 20260831004701 | 91 | 360 | 0.0 | 0.0 | 0.00 | 0.00 | 0.00 | 47 | 1013.3 |
| 20260831004201 | 92 | 101 | 0.0 | 1.0 | 0.00 | 0.00 | 0.00 | 46 | 1013.3 |
| 20260831003701 | 93 | 360 | 0.0 | 0.0 | 0.00 | 0.00 | 0.00 | 45 | 1013.3 |
| 20260831003200 | 94 | 360 | 0.0 | 0.0 | 0.00 | 0.00 | 0.00 | 44 | 1013.3 |
| 20260831002701 | 94 | 118 | 2.0 | 4.0 | 0.00 | 0.00 | 0.00 | 43 | 1013.3 |
| 20260831002202 | 95 | 97 | 1.0 | 3.0 | 0.00 | 0.00 | 0.00 | 42 | 1013.3 |
| 20260831001700 | 95 | 112 | 2.0 | 4.0 | 0.00 | 0.00 | 0.00 | 41 | 1013.4 |
| 20260831001200 | 96 | 165 | 1.0 | 3.0 | 0.00 | 0.00 | 0.00 | 41 | 1013.4 |
| 20260831000700 | 96 | 119 | 2.0 | 3.0 | 0.00 | 0.00 | 0.00 | 40 | 1013.4 |
| 20260831000200 | 96 | 126 | 2.0 | 3.0 | 0.00 | 0.00 | 0.00 | 40 | 1013.4 |
| 20260830235700 | 96 | 108 | 1.0 | 4.0 | 0.00 | 0.00 | 0.00 | 41 | 1013.3 |
| 20260830235200 | 97 | 125 | 3.0 | 4.0 | 0.00 | 0.00 | 0.00 | 40 | 1013.3 |
| 20260830234700 | 97 | 118 | 4.0 | 7.0 | 0.00 | 0.00 | 0.00 | 39 | 1013.3 |
| 20260830234201 | 97 | 105 | 2.0 | 3.0 | 0.00 | 0.00 | 0.00 | 40 | 1013.3 |
| 20260830233700 | 97 | 152 | 1.0 | 2.0 | 0.00 | 0.00 | 0.00 | 40 | 1013.3 |
| 20260830233200 | 97 | 126 | 3.0 | 4.0 | 0.00 | 0.00 | 0.00 | 40 | 1013.3 |
| 20260830232701 | 97 | 95 | 4.0 | 6.0 | 0.00 | 0.00 | 0.00 | 40 | 1013.2 |
| 20260830232200 | 97 | 102 | 4.0 | 6.0 | 0.00 | 0.00 | 0.00 | 41 | 1013.3 |
| 20260830231700 | 97 | 77 | 5.0 | 6.0 | 0.00 | 0.00 | 0.00 | 41 | 1013.3 |
| 20260830231200 | 97 | 79 | 7.0 | 8.0 | 0.00 | 0.00 | 0.00 | 41 | 1013.3 |
| 20260830230700 | 98 | 68 | 2.0 | 5.0 | 0.00 | 0.00 | 0.00 | 40 | 1013.3 |
| 20260830230202 | 98 | 129 | 4.0 | 6.0 | 0.00 | 0.00 | 0.00 | 40 | 1013.4 |
| 20260830225701 | 98 | 95 | 4.0 | 6.0 | 0.00 | 0.00 | 0.00 | 40 | 1013.4 |
| 20260830225200 | 98 | 40 | 2.0 | 4.0 | 0.00 | 0.00 | 0.00 | 40 | 1013.4 |
| 20260830224701 | 98 | 162 | 3.0 | 6.0 | 0.00 | 0.00 | 0.00 | 40 | 1013.4 |
| 20260830224200 | 98 | 166 | 6.0 | 8.0 | 0.00 | 0.00 | 0.00 | 40 | 1013.4 |
| 20260830223700 | 98 | 127 | 4.0 | 7.0 | 0.00 | 0.00 | 0.00 | 40 | 1013.3 |
| 20260830223200 | 98 | 165 | 6.0 | 8.0 | 0.00 | 0.00 | 0.00 | 40 | 1013.3 |
| 20260830222700 | 98 | 160 | 4.0 | 6.0 | 0.00 | 0.00 | 0.00 | 40 | 1013.3 |
| 20260830222200 | 98 | 142 | 4.0 | 6.0 | 0.00 | 0.00 | 0.00 | 41 | 1013.3 |
| 20260830221702 | 98 | 124 | 4.0 | 5.0 | 0.00 | 0.00 | 0.00 | 41 | 1013.2 |
| 20260830221200 | 98 | 233 | 3.0 | 4.0 | 0.00 | 0.00 | 0.00 | 40 | 1013.3 |
| 20260830220700 | 98 | 318 | 2.0 | 4.0 | 0.00 | 0.00 | 0.00 | 41 | 1013.3 |
| 20260830220200 | 98 | 305 | 3.0 | 4.0 | 0.00 | 0.00 | 0.00 | 41 | 1013.3 |
| 20260830215701 | 97 | 138 | 1.0 | 3.0 | 0.00 | 0.00 | 0.00 | 41 | 1013.3 |
| 20260830215201 | 97 | 196 | 2.0 | 4.0 | 0.00 | 0.00 | 0.00 | 41 | 1013.4 |
| 20260830214700 | 97 | 113 | 4.0 | 7.0 | 0.00 | 0.00 | 0.00 | 42 | 1013.5 |
| 20260830214201 | 97 | 177 | 6.0 | 8.0 | 0.00 | 0.00 | 0.00 | 42 | 1013.4 |
| 20260830213701 | 98 | 121 | 4.0 | 6.0 | 0.00 | 0.00 | 0.00 | 42 | 1013.5 |
| 20260830213200 | 98 | 126 | 5.0 | 8.0 | 0.00 | 0.00 | 0.00 | 42 | 1013.5 |
| 20260830212700 | 98 | 127 | 2.0 | 4.0 | 0.00 | 0.00 | 0.00 | 43 | 1013.5 |
| 20260830212200 | 98 | 174 | 3.0 | 4.0 | 0.00 | 0.00 | 0.00 | 42 | 1013.6 |
| 20260830211700 | 99 | 174 | 3.0 | 7.0 | 0.00 | 0.00 | 0.00 | 42 | 1013.7 |
| 20260830211200 | 98 | 345 | 0.0 | 3.0 | 0.00 | 0.00 | 0.00 | 42 | 1013.9 |
| 20260830210700 | 98 | 177 | 4.0 | 6.0 | 0.00 | 0.00 | 0.00 | 41 | 1014.0 |
| 20260830210200 | 98 | 176 | 2.0 | 4.0 | 0.00 | 0.00 | 0.00 | 42 | 1014.0 |
| 20260830205700 | 98 | 239 | 3.0 | 6.0 | 0.00 | 0.00 | 0.00 | 41 | 1014.1 |
| 20260830205200 | 97 | 97 | 5.0 | 9.0 | 0.00 | 0.00 | 0.00 | 44 | 1014.1 |
| 20260830204701 | 98 | 118 | 4.0 | 6.0 | 0.00 | 0.00 | 0.00 | 43 | 1014.2 |
| 20260830204200 | 97 | 291 | 2.0 | 5.0 | 0.00 | 0.00 | 0.00 | 42 | 1014.3 |
| 20260830203700 | 97 | 165 | 8.0 | 11.0 | 0.00 | 0.00 | 0.00 | 43 | 1014.4 |
| 20260830203200 | 98 | 126 | 3.0 | 8.0 | 0.00 | 0.00 | 0.00 | 44 | 1014.4 |
| 20260830202701 | 97 | 90 | 4.0 | 7.0 | 0.00 | 0.00 | 0.00 | 43 | 1014.4 |
| 20260830202201 | 97 | 54 | 3.0 | 5.0 | 0.00 | 0.00 | 0.00 | 44 | 1014.4 |
| 20260830201701 | 96 | 337 | 1.0 | 6.0 | 0.00 | 0.00 | 0.00 | 43 | 1014.5 |
| 20260830201200 | 97 | 287 | 3.0 | 4.0 | 0.00 | 0.00 | 0.00 | 44 | 1014.7 |
| 20260830200701 | 97 | 185 | 4.0 | 8.0 | 0.00 | 0.00 | 0.00 | 45 | 1014.7 |
| 20260830200200 | 97 | 233 | 2.0 | 4.0 | 0.00 | 0.00 | 0.00 | 45 | 1014.8 |
| 20260830195700 | 97 | 198 | 5.0 | 7.0 | 0.00 | 0.00 | 0.00 | 45 | 1014.8 |
| 20260830195200 | 96 | 192 | 3.0 | 5.0 | 0.00 | 0.00 | 0.00 | 45 | 1015.0 |
| 20260830194701 | 96 | 21 | 1.0 | 2.0 | 0.00 | 0.00 | 0.00 | 46 | 1015.1 |
| 20260830194201 | 96 | 243 | 5.0 | 7.0 | 0.00 | 0.00 | 0.00 | 46 | 1015.1 |
| 20260830193701 | 96 | 246 | 3.0 | 5.0 | 0.00 | 0.00 | 0.00 | 46 | 1015.2 |
| 20260830193200 | 96 | 251 | 5.0 | 6.0 | 0.00 | 0.00 | 0.00 | 45 | 1015.2 |
| 20260830192700 | 96 | 226 | 4.0 | 6.0 | 0.00 | 0.00 | 0.00 | 46 | 1015.3 |
| 20260830192200 | 96 | 229 | 4.0 | 6.0 | 0.00 | 0.00 | 0.00 | 47 | 1015.4 |
| 20260830191701 | 95 | 266 | 4.0 | 5.0 | 0.00 | 0.00 | 0.00 | 46 | 1015.5 |
| 20260830191200 | 94 | 229 | 4.0 | 6.0 | 0.00 | 0.00 | 0.00 | 47 | 1015.6 |
| 20260830190700 | 94 | 284 | 2.0 | 4.0 | 0.00 | 0.00 | 0.00 | 49 | 1015.8 |
| 20260830190201 | 93 | 329 | 2.0 | 3.0 | 0.00 | 0.00 | 0.00 | 52 | 1015.9 |
| 20260830185701 | 93 | 277 | 1.0 | 3.0 | 0.00 | 0.00 | 0.00 | 52 | 1016.1 |
| 20260830185200 | 93 | 277 | 1.0 | 3.0 | 0.00 | 0.00 | 0.00 | 52 | 1016.1 |
| 20260830184700 | 93 | 276 | 2.0 | 3.0 | 0.00 | 0.00 | 0.00 | 51 | 1016.1 |
| 20260830184200 | 93 | 360 | 0.0 | 0.0 | 0.00 | 0.00 | 0.00 | 51 | 1016.2 |
| 20260830183700 | 93 | 15 | 2.0 | 4.0 | 0.00 | 0.00 | 0.00 | 51 | 1016.2 |
| 20260830183200 | 93 | 298 | 3.0 | 4.0 | 0.00 | 0.00 | 0.00 | 51 | 1016.2 |
| 20260830182700 | 93 | 280 | 0.0 | 2.0 | 0.00 | 0.00 | 0.00 | 50 | 1016.2 |
| 20260830182200 | 93 | 240 | 3.0 | 4.0 | 0.00 | 0.00 | 0.00 | 51 | 1016.3 |
| 20260830181700 | 94 | 238 | 3.0 | 5.0 | 0.00 | 0.00 | 0.00 | 51 | 1016.4 |
| 20260830181200 | 94 | 205 | 3.0 | 5.0 | 0.00 | 0.00 | 0.00 | 49 | 1016.4 |
| 20260830180700 | 94 | 322 | 2.0 | 4.0 | 0.00 | 0.00 | 0.00 | 49 | 1016.3 |
| 20260830180201 | 95 | 75 | 5.0 | 7.0 | 0.00 | 0.00 | 0.00 | 49 | 1016.4 |
| 20260830175701 | 94 | 187 | 5.0 | 9.0 | 0.00 | 0.00 | 0.00 | 50 | 1016.4 |
| 20260830175201 | 94 | 101 | 4.0 | 5.0 | 0.00 | 0.00 | 0.00 | 52 | 1016.5 |
| 20260830174700 | 94 | 182 | 5.0 | 8.0 | 0.00 | 0.00 | 0.00 | 52 | 1016.6 |
| 20260830174200 | 94 | 284 | 1.0 | 3.0 | 0.00 | 0.00 | 0.00 | 52 | 1016.7 |
| 20260830173701 | 93 | 216 | 5.0 | 9.0 | 0.00 | 0.00 | 0.00 | 52 | 1016.8 |
| 20260830173200 | 93 | 241 | 3.0 | 4.0 | 0.00 | 0.00 | 0.00 | 52 | 1016.9 |
| 20260830172700 | 93 | 193 | 4.0 | 6.0 | 0.00 | 0.00 | 0.00 | 53 | 1017.0 |
| 20260830172200 | 93 | 260 | 1.0 | 6.0 | 0.00 | 0.00 | 0.00 | 55 | 1017.0 |
| 20260830171701 | 93 | 215 | 6.0 | 8.0 | 0.00 | 0.00 | 0.00 | 54 | 1017.0 |
| 20260830171201 | 93 | 191 | 3.0 | 4.0 | 0.00 | 0.00 | 0.00 | 54 | 1017.0 |
| 20260830170700 | 92 | 241 | 3.0 | 4.0 | 0.00 | 0.00 | 0.00 | 54 | 1017.1 |
| 20260830170200 | 92 | 208 | 1.0 | 3.0 | 0.00 | 0.00 | 0.00 | 56 | 1017.1 |
| 20260830165701 | 92 | 133 | 4.0 | 6.0 | 0.00 | 0.00 | 0.00 | 55 | 1017.1 |
| 20260830165200 | 92 | 34 | 2.0 | 3.0 | 0.00 | 0.00 | 0.00 | 55 | 1017.2 |
| 20260830164700 | 91 | 157 | 6.0 | 7.0 | 0.00 | 0.00 | 0.00 | 56 | 1017.3 |
| 20260830164200 | 91 | 158 | 2.0 | 4.0 | 0.00 | 0.00 | 0.00 | 56 | 1017.3 |
| 20260830163700 | 91 | 156 | 6.0 | 9.0 | 0.00 | 0.00 | 0.00 | 56 | 1017.3 |
| 20260830163201 | 91 | 104 | 3.0 | 6.0 | 0.00 | 0.00 | 0.00 | 56 | 1017.3 |
| 20260830162701 | 91 | 81 | 3.0 | 4.0 | 0.00 | 0.00 | 0.00 | 57 | 1017.4 |
| 20260830162201 | 90 | 179 | 4.0 | 7.0 | 0.00 | 0.00 | 0.00 | 58 | 1017.4 |
| 20260830161701 | 90 | 172 | 6.0 | 8.0 | 0.00 | 0.00 | 0.00 | 57 | 1017.5 |
| 20260830161200 | 90 | 184 | 5.0 | 7.0 | 0.00 | 0.00 | 0.00 | 57 | 1017.5 |
| 20260830160700 | 90 | 168 | 8.0 | 10.0 | 0.00 | 0.00 | 0.00 | 57 | 1017.5 |
| 20260830160201 | 90 | 215 | 5.0 | 9.0 | 0.00 | 0.00 | 0.00 | 58 | 1017.5 |
| 20260830155700 | 90 | 166 | 4.0 | 9.0 | 0.00 | 0.00 | 0.00 | 58 | 1017.4 |
| 20260830155203 | 90 | 171 | 5.0 | 7.0 | 0.00 | 0.00 | 0.00 | 57 | 1017.4 |
| 20260830154700 | 90 | 261 | 0.0 | 1.0 | 0.00 | 0.00 | 0.00 | 60 | 1017.4 |
| 20260830154200 | 89 | 223 | 0.0 | 3.0 | 0.00 | 0.00 | 0.00 | 60 | 1017.5 |
| 20260830153700 | 89 | 181 | 2.0 | 4.0 | 0.00 | 0.00 | 0.00 | 63 | 1017.5 |
| 20260830153203 | 89 | 225 | 4.0 | 6.0 | 0.00 | 0.00 | 0.00 | 62 | 1017.5 |
| 20260830152700 | 89 | 351 | 2.0 | 4.0 | 0.00 | 0.00 | 0.00 | 63 | 1017.5 |
| 20260830152201 | 88 | 154 | 2.0 | 3.0 | 0.00 | 0.00 | 0.00 | 64 | 1017.5 |
| 20260830151700 | 88 | 234 | 2.0 | 4.0 | 0.00 | 0.00 | 0.00 | 65 | 1017.6 |